Location: Beadle
(51.4667°N, 109.0000°W)
Time: 18:01:42
(UTC+00:00)

O/OREOS (USA 219) - Pass Details

Date: 27 June 2022
Orbit: 621 x 646 km, 72.0° (Epoch: 22 May)

Event Time Altitude Azimuth Distance (km) Brightness Sun altitude
Rises 09:02:15 0° 325° (NW) 2,963 ? -11.9°
Reaches altitude 10° 09:04:40 10° 317° (NW) 2,051 ? -11.7°
Maximum altitude 09:08:50 34° 253° (WSW) 1,061 ? -11.4°
Enters shadow 09:12:03 15° 194° (SSW) 1,720 ? -11.2°
